Vorticity
5 5 7 6 7 12 9 11 10 7 9 8 7 6 6 10 8 20 9 6 0 9 3 9 3 4 6 9 9 8 7 8 2 8 6 8 5 2 8 7 11 13 13 12
12 15 8 7 6 5 8 9 10 22 4 11 10 7 6 7 6 21 6 8 3 5 4 5 6 7 -0 18 7 6 2 6 6 4 7 8 10 9 8 6 12 12 7 6
13 12 19 7 8 5 3 14 12 5 20 3 4 11 6 4 14 14 5 6 4 4 7 6 6 1 2 4 2 4 3 4 4 5 14 4 11 17 11 9 10 7 8 5
30 20 17 15 11 9 8 5 10 0 11 14 6 4 8 6 9 7 6 4 5 6 4 4 3 4 5 6 9 8 5 6 5 7 10 2 10 7 10 8 8 8 8 8
15 19 20 19 14 15 2 7 8 4 -2 5 18 9 5 10 11 9 6 4 2 3 4 4 3 7 13 11 9 12 13 12 12 12 12 11 11 16 11 8 9 7 6 4
23 13 13 20 11 11 -5 4 8 11 -2 2 6 8 7 7 12 7 6 6 7 5 5 0 8 16 5 18 17 13 11 11 10 10 10 12 10 10 9 11 7 5 4 4
33 11 2 13 12 5 4 4 2 0 2 7 11 14 11 3 14 5 6 -1 3 2 3 3 8 15 11 12 17 11 12 10 10 10 11 8 9 8 9 7 7 7 6 4
48 30 11 8 9 12 4 -8 -3 3 21 17 13 3 8 11 11 -6 15 3 2 3 1 4 10 14 11 12 13 15 11 12 11 10 8 2 3 9 9 8 6 7 9 10
52 52 7 8 10 8 -12 -16 -6 -13 17 21 17 13 3 18 2 -5 8 4 7 2 1 4 9 12 13 12 14 14 16 17 13 10 7 10 10 9 10 10 8 6 6 5
48 68 -2 20 0 0 -2 -5 -11 1 19 23 3 13 11 16 10 -8 8 5 3 -1 2 3 4 7 10 13 17 14 11 11 11 11 11 10 9 2 4 4 2 4 6 6
59 57 10 17 13 -2 4 -1 -21 46 -5 19 13 13 12 5 7 3 7 6 1 1 1 2 2 3 3 5 7 7 7 6 5 6 2 3 2 4 3 4 5 5 5 6
66 41 7 18 7 12 -6 19 -32 -2 42 25 13 6 14 4 5 16 6 9 3 1 3 1 2 3 1 4 3 5 7 4 3 4 3 3 4 4 4 6 6 6 7 7
43 -20 32 21 24 5 32 -9 59 55 27 -31 18 0 18 10 4 9 7 4 -1 -1 2 1 2 2 2 2 2 4 3 4 3 3 4 3 2 4 3 4 5 5 8 10
-16 47 10 16 7 37 -35 9 -43 -26 -23 36 13 1 18 3 10 8 6 5 -3 -4 5 2 2 -0 -1 2 2 1 2 2 2 2 3 6 3 3 4 5 7 9 11 6
5 -21 13 7 24 -44 67 13 4 41 10 13 12 -1 12 21 6 11 4 6 5 -1 2 2 1 2 2 2 2 3 2 3 3 3 3 4 1 5 7 8 11 11 9 11
16 13 24 29 -1 -3 -19 -7 19 12 5 16 14 4 11 10 17 8 3 3 6 5 -0 3 1 1 3 2 3 2 3 3 4 4 6 4 5 7 11 11 8 9 7 7
-4 -13 -3 21 4 1 -0 5 18 25 3 12 15 19 10 12 16 13 11 10 9 7 3 7 3 4 4 5 5 4 2 4 4 9 7 8 9 10 8 10 10 5 10 8
30 37 32 14 -9 28 2 23 12 15 22 15 7 7 18 11 14 13 6 7 13 13 9 9 8 6 5 4 4 3 5 5 6 7 10 10 8 11 12 6 6 7 10 12
6 9 2 -5 3 1 4 13 17 25 16 9 4 12 17 22 15 13 13 8 10 8 9 8 7 6 6 6 5 5 7 9 7 10 9 11 11 7 6 6 13 12 9 12
10 9 -2 -2 2 3 -0 20 8 3 25 3 6 14 17 19 15 12 11 6 3 7 5 7 6 6 5 7 10 11 11 12 13 10 10 7 6 5 7 12 11 11 8 5
7 7 2 3 1 6 6 23 10 -13 1 14 3 13 8 19 15 14 9 7 5 6 5 6 6 10 11 9 11 12 11 10 9 8 7 7 6 8 12 11 8 7 5 4
9 12 11 6 6 1 18 23 37 1 -6 -3 -6 1 15 17 8 9 10 12 8 7 6 4 2 9 11 11 11 10 9 7 7 8 7 8 11 11 10 9 5 5 4 7
17 10 16 7 4 -4 35 -20 11 10 27 32 26 17 -5 2 10 12 8 8 8 8 9 10 12 12 11 9 8 8 11 10 7 9 13 11 10 9 6 7 5 6 9 20
16 9 10 14 10 10 -4 4 -8 13 13 13 12 11 10 8 7 9 10 9 9 9 9 11 10 8 8 8 9 8 9 12 12 8 10 12 10 5 5 6 9 18 27 10
11 0 12 21 16 -6 -1 3 17 -4 9 15 17 15 15 13 11 13 7 7 6 6 6 8 7 8 12 15 16 12 11 12 12 7 5 6 5 7 10 19 23 12 6 3
-1 8 14 15 -4 12 0 19 23 15 9 6 5 5 5 2 1 3 7 10 9 4 6 12 19 12 7 10 9 6 6 7 7 5 6 7 11 20 21 10 5 3 5 6
17 6 -0 11 11 8 -3 -11 9 27 23 8 -1 -0 5 8 10 10 7 5 15 21 18 8 11 10 3 1 4 6 6 8 7 8 15 24 16 6 5 3 4 5 6 7
Height
5529 5548 5566 5583 5598 5613 5624 5639 5649 5654 5662 5671 5681 5687 5699 5707 5707 5711 5715 5717 5724 5726 5731 5731 5733 5737 5739 5740 5742 5744 5746 5748 5749 5751 5751 5754 5754 5755 5756 5757 5759 5758 5760 5763
5503 5525 5545 5564 5582 5597 5614 5626 5636 5642 5651 5662 5672 5682 5693 5697 5700 5706 5711 5715 5719 5723 5727 5729 5731 5734 5735 5738 5740 5741 5742 5745 5745 5747 5749 5750 5750 5751 5752 5753 5753 5755 5756 5760
5476 5500 5521 5544 5565 5583 5599 5611 5619 5630 5643 5656 5663 5676 5685 5690 5695 5701 5705 5711 5715 5719 5723 5725 5728 5729 5731 5733 5735 5738 5738 5740 5741 5743 5746 5745 5745 5746 5747 5748 5749 5753 5754 5756
5447 5474 5499 5525 5545 5566 5577 5592 5612 5626 5636 5644 5653 5666 5677 5683 5688 5695 5699 5705 5710 5716 5719 5722 5724 5725 5726 5728 5730 5731 5733 5735 5736 5738 5740 5739 5741 5742 5743 5744 5747 5747 5752 5751
5418 5450 5473 5504 5530 5545 5558 5587 5603 5618 5629 5638 5648 5661 5669 5676 5683 5690 5695 5701 5707 5712 5715 5717 5719 5719 5721 5722 5724 5725 5727 5729 5729 5732 5734 5734 5735 5738 5739 5741 5743 5743 5745 5745
5404 5425 5458 5490 5510 5524 5549 5578 5594 5606 5619 5628 5639 5652 5662 5669 5677 5685 5693 5699 5703 5707 5709 5712 5714 5715 5717 5716 5719 5719 5721 5723 5725 5727 5729 5731 5733 5735 5736 5737 5738 5738 5738 5740
5394 5413 5440 5472 5495 5517 5554 5571 5584 5598 5609 5619 5635 5645 5657 5663 5671 5681 5685 5692 5697 5698 5705 5708 5709 5711 5712 5712 5713 5715 5716 5718 5720 5723 5724 5726 5729 5730 5731 5732 5732 5732 5731 5729
5390 5408 5429 5458 5489 5515 5541 5558 5575 5590 5600 5615 5625 5638 5649 5659 5667 5678 5681 5685 5687 5696 5701 5703 5705 5707 5708 5708 5709 5710 5712 5714 5716 5717 5720 5724 5724 5724 5726 5726 5726 5724 5724 5724
5388 5408 5427 5452 5483 5513 5533 5550 5569 5585 5596 5607 5625 5632 5641 5650 5659 5666 5670 5678 5685 5690 5694 5699 5701 5703 5703 5704 5706 5707 5708 5710 5712 5714 5716 5717 5717 5719 5719 5719 5718 5717 5718 5715
5380 5402 5433 5460 5482 5509 5529 5551 5572 5584 5594 5602 5613 5626 5636 5645 5649 5658 5668 5674 5680 5686 5690 5694 5697 5699 5700 5701 5702 5704 5705 5706 5708 5709 5710 5712 5712 5714 5714 5714 5715 5710 5708 5705
5377 5403 5439 5464 5486 5508 5531 5561 5573 5576 5589 5599 5610 5620 5628 5638 5643 5652 5662 5668 5674 5680 5685 5689 5693 5695 5697 5698 5699 5701 5702 5703 5705 5705 5706 5707 5707 5706 5707 5706 5703 5701 5699 5696
5383 5422 5450 5470 5492 5512 5537 5558 5572 5583 5587 5591 5602 5611 5621 5630 5642 5648 5657 5666 5673 5678 5680 5684 5688 5691 5693 5694 5695 5696 5698 5699 5700 5702 5701 5700 5699 5699 5697 5695 5695 5692 5688 5684
5412 5434 5457 5477 5498 5522 5542 5567 5574 5579 5577 5586 5597 5605 5618 5624 5633 5642 5651 5657 5664 5669 5673 5679 5682 5685 5688 5689 5691 5691 5692 5693 5694 5695 5694 5691 5690 5690 5687 5687 5683 5679 5676 5672
5430 5448 5469 5489 5512 5531 5545 5552 5546 5550 5567 5581 5595 5605 5613 5623 5630 5640 5650 5656 5663 5667 5668 5671 5675 5679 5682 5684 5685 5685 5686 5687 5686 5687 5686 5684 5680 5678 5678 5675 5672 5668 5664 5660
5445 5463 5483 5502 5518 5539 5541 5556 5558 5562 5570 5582 5592 5602 5611 5618 5626 5634 5643 5649 5654 5659 5662 5664 5668 5673 5676 5677 5677 5678 5678 5679 5678 5677 5677 5675 5671 5670 5667 5663 5660 5657 5653 5650
5465 5480 5495 5511 5528 5538 5543 5552 5558 5565 5573 5582 5589 5600 5608 5615 5622 5629 5636 5642 5648 5651 5655 5658 5662 5666 5668 5668 5669 5670 5670 5670 5668 5667 5665 5662 5661 5660 5657 5653 5649 5645 5642 5638
5479 5492 5507 5520 5533 5545 5552 5558 5564 5567 5574 5581 5589 5596 5603 5611 5618 5624 5631 5636 5640 5644 5649 5652 5655 5658 5658 5659 5660 5661 5661 5660 5659 5656 5653 5651 5648 5647 5644 5641 5638 5634 5630 5625
5491 5502 5515 5527 5537 5536 5548 5555 5561 5566 5574 5580 5586 5592 5599 5605 5611 5617 5624 5629 5634 5638 5643 5645 5646 5648 5649 5649 5650 5650 5650 5649 5647 5645 5642 5639 5636 5633 5631 5628 5625 5621 5617 5612
5501 5511 5522 5531 5538 5543 5548 5554 5560 5566 5573 5576 5582 5589 5595 5600 5606 5612 5617 5622 5626 5630 5633 5635 5638 5639 5639 5640 5640 5640 5638 5637 5637 5633 5630 5627 5625 5622 5619 5616 5612 5607 5603 5599
5509 5517 5524 5531 5537 5544 5549 5554 5559 5564 5569 5574 5580 5585 5590 5596 5601 5606 5612 5615 5618 5620 5624 5625 5628 5629 5630 5629 5629 5629 5627 5625 5623 5620 5617 5615 5613 5610 5607 5603 5599 5594 5590 5585
5511 5517 5524 5533 5537 5544 5548 5552 5558 5563 5568 5573 5578 5583 5587 5591 5596 5600 5604 5606 5609 5611 5614 5615 5617 5619 5620 5618 5618 5617 5615 5613 5611 5608 5605 5603 5600 5597 5593 5588 5585 5581 5576 5572
5515 5522 5528 5533 5539 5545 5548 5552 5557 5561 5563 5570 5575 5581 5585 5588 5591 5593 5596 5598 5600 5602 5605 5606 5607 5611 5609 5608 5607 5605 5603 5600 5598 5596 5593 5590 5587 5583 5579 5576 5572 5568 5563 5557
5517 5523 5528 5534 5538 5542 5546 5550 5556 5559 5563 5569 5574 5577 5580 5583 5585 5587 5589 5589 5592 5593 5594 5596 5599 5599 5598 5597 5595 5593 5591 5588 5586 5583 5580 5577 5574 5570 5566 5562 5557 5553 5548 5542
5520 5525 5529 5532 5537 5542 5548 5552 5555 5559 5562 5565 5568 5571 5573 5576 5578 5580 5581 5582 5582 5583 5584 5587 5588 5586 5585 5583 5581 5580 5577 5575 5573 5570 5567 5564 5560 5556 5551 5547 5542 5537 5532 5527
5524 5527 5531 5534 5539 5544 5547 5550 5553 5555 5558 5561 5563 5565 5568 5570 5570 5572 5573 5573 5573 5574 5575 5577 5575 5574 5571 5569 5568 5565 5564 5562 5560 5556 5553 5549 5545 5540 5536 5531 5526 5522 5518 5513
5524 5529 5532 5535 5539 5541 5544 5546 5549 5552 5554 5556 5558 5560 5561 5562 5563 5563 5564 5564 5563 5564 5564 5562 5561 5560 5558 5557 5556 5553 5551 5548 5545 5541 5537 5534 5530 5525 5521 5516 5512 5508 5502 5496
5524 5527 5530 5533 5535 5537 5540 5542 5544 5545 5548 5550 5551 5552 5553 5553 5553 5553 5554 5554 5553 5552 5551 5550 5549 5548 5546 5545 5542 5539 5536 5533 5529 5526 5522 5518 5514 5510 5506 5502 5495 5491 5486 5478